This is the latest recevied weather packets stored in our database for station/object KF6YUA. If no packets are shown the sender has not sent any weather packets the latest 10 day(s).
| Time | Temp. | Humidity | Pressure | Rain* | Wind** | Luminosity | Snow |
|---|---|---|---|---|---|---|---|
| 1777509716 | 17.22° C | 70% | 1018 hPa | 0 mm | - | 206 W/m² | - |
| 1777509413 | 17.78° C | 67% | 1018.1 hPa | 0 mm | - | 215 W/m² | - |
| 1777509111 | 18.89° C | 68% | 1018 hPa | 0 mm | - | 228 W/m² | - |
| 1777508807 | 17.78° C | 69% | 1018.2 hPa | 0 mm | - | 245 W/m² | - |
| 1777508505 | 18.33° C | 68% | 1018.2 hPa | 0 mm | - | 217 W/m² | - |
| 1777508202 | 17.78° C | 70% | 1018 hPa | 0 mm | - | 287 W/m² | - |
| 1777507898 | 18.89° C | 69% | 1018.2 hPa | 0 mm | - | 289 W/m² | - |
| 1777507596 | 18.89° C | 67% | 1017.9 hPa | 0 mm | - | 322 W/m² | - |
| 1777507292 | 18.33° C | 68% | 1018.2 hPa | 0 mm | - | 334 W/m² | - |
| 1777506990 | 18.89° C | 66% | 1018.1 hPa | 0 mm | - | 368 W/m² | - |
| 1777506687 | 18.89° C | 68% | 1018 hPa | 0 mm | - | 366 W/m² | - |
| 1777506383 | 18.89° C | 67% | 1018.1 hPa | 0 mm | - | 401 W/m² | - |
| 1777506079 | 19.44° C | 68% | 1018.2 hPa | 0 mm | - | 443 W/m² | - |
| 1777505775 | 19.44° C | 66% | 1018.1 hPa | 0 mm | - | 482 W/m² | - |
| 1777505472 | 20° C | 67% | 1018.2 hPa | 0 mm | - | 491 W/m² | - |
| 1777505169 | 19.44° C | 65% | 1018.2 hPa | 0 mm | - | 460 W/m² | - |
| 1777504865 | 20° C | 65% | 1018.4 hPa | 0 mm | - | 411 W/m² | - |
| 1777504563 | 20° C | 64% | 1018.2 hPa | 0 mm | - | 461 W/m² | - |
| 1777504258 | 20.56° C | 63% | 1018 hPa | 0 mm | - | 476 W/m² | - |
| 1777503954 | 20° C | 62% | 1018.5 hPa | 0 mm | - | 483 W/m² | - |
| 1777503650 | 21.11° C | 63% | 1018.4 hPa | 0 mm | - | 345 W/m² | - |
| 1777503347 | 21.11° C | 59% | 1018.8 hPa | 0 mm | - | 338 W/m² | - |
| 1777503043 | 20.56° C | 63% | 1018.7 hPa | 0 mm | - | 492 W/m² | - |
| 1777502741 | 20.56° C | 58% | 1018.8 hPa | 0 mm | - | 459 W/m² | - |
| 1777502438 | 20.56° C | 62% | 1018.7 hPa | 0 mm | - | 503 W/m² | - |
* Rain latest hour (hover to see other rain measurements)
** Current wind speed in m/s (hover to see current wind gust speed)